Location: Alto Pass Reservoir
(37.5801°N, 89.3084°W)
Time: 20:25:53
(UTC+00:00)

Cosmos 44 Rocket - Pass Details

Date: 08 December 2021
Orbit: 648 x 742 km, 65.1° (Epoch: 17 January)

Event Time Altitude Azimuth Distance (km) Brightness Sun altitude
Rises 23:06:32 0° 339° (NNW) 3,090 6.6 -5.8°
Reaches altitude 10° 23:09:13 10° 351° (N) 2,151 5.7 -6.3°
Maximum altitude 23:13:25 28° 51° (NE) 1,271 4.1 -7.0°
Drops below altitude 10° 23:17:30 10° 110° (ESE) 2,090 5.3 -7.8°
Sets 23:20:03 0° 122° (ESE) 2,986 6.2 -8.2°
